Wind_Speed
22 21 21 20 21 20 20 20 21 19 19 19 18 18 18 18 17 8 13 12 11 11 13 10 13 12 13 13 15 15 13 11 8 13 13 10 12 10 10 12 8 4 20 27 27
24 23 22 22 22 22 21 21 22 20 19 20 18 18 18 18 16 20 20 14 12 17 15 16 12 11 11 12 5 12 4 12 13 12 12 11 10 12 11 11 10 16 25 29 30
24 24 23 23 24 24 24 23 22 21 20 21 18 17 17 15 14 17 6 15 16 20 18 16 15 11 15 13 5 6 8 6 9 13 12 11 12 12 11 11 12 18 23 24 26
26 25 25 24 25 25 26 25 23 22 22 20 18 17 14 7 7 7 3 4 20 21 21 18 16 15 16 10 2 10 6 3 13 11 10 11 11 9 4 11 14 19 21 21 19
28 27 26 26 26 27 27 27 24 23 23 21 17 14 7 11 16 7 6 3 16 22 24 17 17 15 16 4 3 8 6 4 10 7 13 9 8 9 9 9 16 20 19 19 17
29 29 28 27 27 28 29 27 25 25 23 20 16 9 8 18 4 4 8 12 18 23 23 21 15 14 14 10 9 5 7 9 9 11 7 11 11 11 9 14 17 18 18 17 18
30 31 31 30 29 29 28 28 26 23 22 17 12 7 13 18 2 6 11 16 18 24 19 23 21 10 10 13 4 5 10 10 11 10 8 10 11 15 13 15 17 17 16 16 15
32 33 34 32 31 31 29 27 22 19 13 8 6 8 10 5 15 11 12 13 17 19 21 18 17 14 19 5 8 13 15 15 14 11 8 8 13 15 16 16 16 17 16 15 16
33 35 36 34 33 33 28 21 18 7 4 4 5 10 16 10 14 17 17 16 17 16 18 16 15 16 16 14 14 13 15 15 13 13 8 10 14 16 16 16 16 15 15 15 16
32 35 38 36 35 31 23 15 8 3 3 7 13 8 16 14 14 21 20 14 15 15 14 15 10 15 17 15 16 20 20 22 19 12 10 7 11 14 15 15 15 16 15 16 16
33 35 38 36 35 20 21 6 5 7 16 15 8 13 6 8 8 16 23 17 17 16 16 20 17 20 24 22 24 16 16 21 13 19 11 13 8 18 15 15 16 16 16 17 17
35 36 38 34 29 13 13 6 6 6 11 19 23 19 6 12 13 17 23 18 16 19 21 16 24 24 23 23 24 12 14 16 13 16 10 11 11 11 19 17 16 17 18 18 18
35 36 39 35 15 10 8 5 6 10 8 15 23 25 21 14 16 21 24 23 19 22 24 22 23 25 23 22 20 18 17 12 12 11 12 12 9 12 17 19 17 17 18 18 19
34 35 38 37 9 18 5 4 10 8 6 14 14 15 25 18 23 19 27 22 15 22 23 25 21 25 24 24 22 20 19 17 14 13 14 17 13 16 18 20 19 19 19 20 20
35 35 36 18 18 9 9 13 13 7 6 12 14 9 17 26 13 27 30 23 24 20 17 24 23 25 27 24 23 20 20 18 17 13 16 14 9 6 6 13 17 21 21 21 21
36 36 34 12 14 15 13 15 11 7 10 10 12 14 18 24 25 24 25 26 21 19 21 24 22 26 23 22 23 22 22 15 18 13 15 19 11 13 13 13 16 19 22 22 21
38 38 25 15 10 11 14 10 7 11 6 12 15 18 22 19 27 22 30 27 23 21 21 22 25 21 18 22 28 25 22 11 14 14 13 16 15 15 4 14 16 19 20 22 22
41 30 15 12 14 12 11 8 13 9 24 3 14 19 21 20 25 21 28 24 28 24 15 19 20 23 23 28 27 26 24 15 19 13 16 18 16 7 10 10 6 9 19 20 23
37 21 16 12 8 8 8 14 8 18 9 12 11 16 20 20 19 22 27 28 29 27 25 20 26 25 25 21 27 28 24 24 22 20 16 15 16 17 15 14 11 11 14 18 21
26 24 22 5 9 12 10 23 19 10 7 10 18 15 19 22 20 26 25 27 28 31 26 19 16 23 24 21 28 29 21 23 18 22 21 17 12 9 16 15 16 15 15 16 16
16 7 8 3 7 9 15 21 24 28 16 10 14 20 17 19 22 21 26 21 29 29 28 25 12 19 23 25 25 23 23 20 24 20 18 16 15 14 11 10 11 15 14 16 18
12 8 7 5 9 10 15 22 20 24 18 20 17 17 19 18 18 24 22 20 16 28 32 27 14 17 25 22 23 26 28 28 15 23 19 17 16 13 14 14 14 14 7 9 6
7 10 15 9 8 13 18 21 19 16 17 20 23 23 17 17 18 16 18 19 7 20 28 23 21 15 22 20 23 27 25 28 25 21 21 18 17 15 5 9 10 7 6 7 6
7 6 7 8 12 13 16 11 8 12 17 21 21 21 22 22 19 15 19 12 3 13 6 22 21 25 18 21 22 26 28 28 26 20 22 23 21 17 13 16 16 13 12 12 10
8 6 6 7 1 5 10 11 14 14 12 17 15 23 22 21 20 19 18 15 7 12 12 17 24 25 26 25 23 24 25 27 30 28 25 21 25 23 17 15 10 12 13 10 12
10 6 8 11 13 10 12 13 18 18 15 11 15 9 15 21 20 17 21 21 10 18 18 21 19 22 25 24 26 21 27 25 29 30 28 26 25 18 17 19 18 15 15 13 8
9 16 8 10 13 11 11 11 13 6 4 15 9 9 10 7 17 17 17 19 16 11 19 22 18 18 22 23 23 25 29 25 27 26 21 24 25 22 22 12 10 14 15 13 14
Wind_Direction
2 360 356 355 353 349 346 343 339 337 332 331 331 328 328 323 315 273 254 259 203 204 172 191 225 237 244 255 253 276 270 62 89 70 99 123 110 69 86 131 140 48 134 139 148
1 358 355 351 347 343 340 337 334 332 328 326 325 324 325 321 304 267 249 241 233 200 189 200 216 233 250 251 256 269 11 57 47 112 108 103 111 120 138 116 123 119 121 145 149
358 355 352 349 344 340 337 333 332 326 322 321 320 320 321 321 278 233 180 220 223 206 210 211 246 232 258 259 260 304 39 65 82 83 122 119 116 152 123 148 139 135 146 153 158
358 354 349 346 341 338 335 331 326 319 317 313 313 314 312 294 281 90 142 260 205 194 218 218 237 240 248 245 114 270 97 10 93 114 120 116 133 147 96 67 135 141 153 159 169
357 355 349 343 339 335 332 328 320 314 311 306 305 305 304 239 250 174 203 172 184 197 216 217 225 233 258 295 253 233 93 149 123 107 87 136 93 113 77 121 132 144 157 165 174
356 354 348 344 337 333 328 324 317 312 307 300 294 282 246 259 246 189 196 180 192 200 214 219 227 238 288 293 278 85 197 141 141 115 148 116 121 164 118 132 138 153 166 172 175
353 351 348 344 337 332 324 320 315 310 306 296 279 214 260 250 219 204 201 199 200 204 214 219 233 259 223 262 214 185 164 154 147 157 150 135 159 101 138 148 151 164 172 175 178
351 349 346 342 337 331 323 317 311 308 302 296 223 220 266 287 232 210 200 190 199 206 223 225 233 259 265 309 226 219 177 180 155 170 129 235 114 135 152 159 165 174 178 179 183
349 347 344 341 338 331 321 314 307 295 298 161 189 231 258 162 217 212 205 200 197 206 214 232 226 236 232 235 221 215 207 124 159 192 148 161 134 139 168 168 172 182 183 186 185
348 346 343 340 338 331 322 314 281 228 225 241 263 249 239 221 204 200 195 192 185 179 189 209 213 223 232 214 223 192 231 138 198 175 180 200 118 153 178 180 180 186 186 192 192
347 346 343 340 338 340 331 283 216 199 222 238 214 231 159 166 151 200 186 185 192 188 193 198 203 211 208 217 239 201 156 251 164 156 196 222 186 156 181 194 190 189 191 196 200
345 345 343 339 336 338 310 301 31 342 292 251 247 245 236 187 191 190 183 189 197 199 206 184 214 214 223 219 239 256 258 216 157 144 205 198 218 191 171 204 198 193 193 200 198
344 344 342 337 330 320 324 31 334 328 261 264 225 219 215 203 221 189 192 204 195 204 203 210 211 220 214 224 232 241 239 234 183 163 203 252 254 233 188 187 208 204 195 198 199
342 342 342 339 295 331 283 335 325 326 272 237 206 218 212 203 225 208 197 206 206 214 217 225 218 206 223 225 217 231 227 250 237 163 215 204 254 200 198 191 194 208 200 196 198
338 338 338 342 300 299 351 319 316 266 272 114 150 146 190 195 172 209 186 210 221 212 216 216 220 224 219 213 221 231 222 225 255 190 254 173 256 265 168 191 194 204 205 203 192
334 333 335 336 271 273 305 309 281 231 240 172 150 189 177 198 229 181 200 212 223 225 224 235 213 230 219 216 224 222 242 203 235 245 223 243 237 224 207 199 188 196 205 204 200
331 328 315 279 270 311 308 275 223 238 112 175 176 181 193 190 213 176 193 200 207 214 215 214 232 221 217 222 220 217 232 219 220 225 240 236 218 250 206 174 184 180 200 202 201
329 327 300 258 265 285 280 227 236 241 232 59 201 186 202 192 209 195 190 203 211 212 205 206 216 204 216 227 218 216 222 225 214 226 233 223 250 242 251 275 233 195 180 195 201
331 319 285 248 245 252 239 219 218 242 275 228 209 214 207 205 195 190 213 209 205 214 224 200 223 192 217 216 228 211 221 234 245 223 243 237 194 223 222 218 230 232 190 185 200
319 302 264 232 246 234 230 235 227 279 340 300 254 216 216 207 199 201 203 211 216 211 221 241 222 214 199 213 227 231 205 228 239 245 255 252 232 227 186 216 227 228 208 193 202
301 279 118 193 217 228 231 231 245 266 289 262 270 260 239 219 208 220 212 217 210 210 217 235 233 209 191 208 209 221 224 218 239 236 248 250 252 211 220 189 218 227 208 197 192
297 267 111 271 243 231 237 237 258 262 269 253 263 277 286 268 251 212 224 223 215 213 207 219 227 237 201 204 222 223 219 232 233 228 249 251 249 250 214 184 223 249 247 292 357
281 288 280 237 250 233 248 237 252 266 252 256 252 254 267 274 268 251 247 220 252 208 221 199 227 223 248 195 209 224 225 226 230 246 241 234 242 251 133 161 187 218 250 235 245
287 293 198 205 255 289 292 281 266 259 254 265 274 265 251 244 259 256 245 221 184 245 355 203 219 228 220 222 201 217 223 232 229 233 234 243 252 238 225 198 204 226 227 231 220
259 275 16 295 270 297 314 294 280 262 243 259 265 251 258 242 240 237 256 254 196 243 264 230 224 231 233 255 222 201 220 231 234 235 239 235 239 239 229 247 227 235 256 254 261
285 330 343 292 288 269 257 254 250 249 265 258 242 291 248 253 248 239 245 250 235 221 223 229 226 233 239 234 250 252 219 220 233 232 233 243 254 252 241 244 239 239 243 259 254
309 308 312 289 270 255 260 264 250 11 260 266 347 327 265 309 330 320 311 305 299 283 214 229 218 222 235 229 238 242 238 225 220 236 228 236 241 248 257 259 241 246 251 251 249
Height
816 813 810 807 804 801 798 796 792 789 786 783 781 778 776 772 768 767 760 756 756 758 761 762 761 757 754 747 735 729 745 742 746 749 760 748 757 752 755 769 768 766 776 793 804
817 813 810 806 803 799 796 794 790 787 784 781 779 776 774 770 766 758 753 753 755 757 760 757 754 751 748 739 731 731 733 746 728 733 750 750 754 760 765 771 775 772 781 794 803
816 812 809 806 802 798 795 791 788 785 782 779 777 775 772 769 761 739 746 750 753 754 755 754 749 746 749 731 728 725 739 730 731 734 738 750 759 754 764 772 771 781 785 792 798
815 812 808 804 800 797 793 789 785 782 779 777 775 772 771 770 766 742 747 747 750 754 754 751 747 749 747 741 727 742 728 729 731 733 742 748 750 758 755 761 763 774 784 790 795
816 811 807 803 799 795 791 787 783 779 776 774 772 771 770 761 746 743 745 747 750 754 750 746 747 744 748 731 732 738 730 729 729 734 740 745 752 760 762 760 766 776 785 790 792
816 811 806 802 797 792 787 783 780 776 772 770 769 769 769 762 741 742 745 747 748 751 746 743 740 734 735 735 737 727 730 731 731 740 743 750 758 754 765 762 771 779 784 787 789
816 811 805 800 794 789 784 779 776 772 768 766 765 766 760 747 740 741 742 743 745 746 743 741 738 736 730 738 725 727 740 736 737 740 747 740 762 763 761 764 775 780 783 786 788
815 809 804 798 792 786 780 775 771 768 765 763 763 766 751 735 737 740 739 739 741 743 742 740 739 736 734 722 730 737 732 754 740 740 740 744 773 761 758 766 775 777 780 784 787
814 808 801 795 789 782 775 771 767 766 764 763 764 760 743 733 735 734 736 735 738 740 741 740 738 741 735 746 748 740 751 753 752 734 740 754 760 756 754 761 771 774 777 781 784
814 807 799 792 786 779 771 767 764 764 764 765 761 758 732 727 723 726 731 731 734 735 740 741 743 747 741 745 763 749 744 751 753 742 741 749 751 752 752 756 764 767 772 776 779
813 806 798 790 783 777 769 765 762 760 756 735 725 725 718 717 723 722 727 728 730 733 747 741 752 751 735 729 718 717 733 742 726 725 742 742 744 746 750 751 757 761 766 770 773
810 804 798 789 781 776 771 758 766 770 755 730 725 720 716 715 723 720 723 729 732 743 734 743 748 726 719 718 720 721 729 731 721 722 737 739 744 731 737 745 744 751 757 761 765
811 803 796 787 780 775 771 769 769 766 754 718 708 712 713 717 716 715 717 718 728 736 731 734 728 718 722 724 730 726 734 728 732 728 729 735 748 735 725 732 736 738 743 750 756
811 804 797 786 783 776 767 771 769 767 754 708 703 702 703 710 719 701 710 715 718 729 724 725 710 720 722 728 723 738 717 718 723 742 762 731 770 739 722 728 732 734 736 741 747
809 803 798 795 789 776 773 772 769 765 756 690 694 687 690 704 691 703 701 709 721 721 720 725 720 718 726 721 711 729 706 718 721 734 741 744 756 731 719 729 728 728 728 730 736
806 800 796 790 786 779 776 773 767 765 747 696 689 699 700 699 692 687 700 702 701 712 711 711 697 703 707 703 707 707 713 715 724 729 761 739 743 737 722 720 715 717 719 722 727
801 796 793 792 778 777 776 769 763 746 684 689 694 689 694 701 698 691 707 714 719 735 732 718 709 701 698 717 706 711 725 760 771 763 766 721 741 729 702 697 699 706 710 713 719
798 789 783 783 779 778 775 766 757 698 692 671 673 680 695 684 693 692 703 713 702 705 712 732 742 709 698 708 715 714 719 747 783 773 755 721 747 725 694 688 688 689 694 702 709
795 785 777 773 776 776 769 757 723 707 681 678 679 686 689 677 685 691 698 700 693 690 717 715 720 690 694 695 696 712 725 707 730 720 736 715 711 698 691 694 694 692 692 697 700
799 786 770 769 772 771 761 745 713 688 689 689 695 680 687 679 686 684 690 679 685 680 677 687 714 684 690 692 688 693 699 736 722 759 764 726 725 721 706 705 698 692 689 689 692
796 773 764 768 769 762 747 734 720 702 698 708 700 686 674 670 671 678 679 670 667 672 674 680 693 693 683 701 707 706 709 708 712 720 745 750 726 683 692 691 693 686 680 680 680
791 771 762 766 761 744 736 727 720 706 698 703 700 697 688 670 667 670 670 664 650 660 679 675 685 708 692 678 681 686 698 701 722 737 717 722 719 665 669 675 683 680 676 675 675
786 769 760 763 752 736 723 718 713 714 712 712 705 697 687 688 689 668 662 644 648 655 667 670 693 710 706 685 679 695 687 688 695 698 718 731 718 664 665 672 673 679 679 679 680
791 762 747 750 744 739 731 719 723 721 720 714 708 696 695 695 680 683 675 651 658 658 668 660 681 694 699 692 681 700 694 687 692 707 711 707 704 683 675 679 677 678 675 676 677
784 764 759 751 742 740 743 741 736 729 717 715 712 708 701 702 692 691 678 661 665 665 666 664 689 679 676 669 668 678 689 689 693 688 701 695 693 680 673 671 671 671 673 675 675
794 783 774 762 755 756 756 749 745 734 726 728 725 705 701 704 695 697 684 676 676 666 671 661 684 680 685 673 671 674 667 674 676 675 679 683 686 659 658 659 665 668 672 674 675
799 794 786 772 759 752 744 740 738 740 737 731 733 729 722 713 708 704 701 691 679 673 672 669 675 687 697 677 678 691 665 663 667 666 671 693 678 663 665 663 663 666 666 669 667